Regional Weather Roundup
Issued by NWS Huntsville, AL

Home | Current Version | Previous Version | Text Only | Print | Product List | Glossary On
Versions: 1 2 3 4 5 6 7 8 9 10 11 12 13 14 15 16 17 18 19 20 21 22 23 24 25 26 27 28
000
ASUS44 KHUN 292310
RWRHUN

WEATHER ROUNDUP FOR THE TENNESSEE VALLEY
NATIONAL WEATHER SERVICE HUNTSVILLE AL
600 PM CDT WED MAR 29 2017

ALZ001>004-300000-
NORTHWEST ALABAMA

CITY           SKY/WX    TMP DP  RH WIND       PRES   REMARKS
COURTLAND HCN    N/A     81 N/A N/A S8          N/A
RUSSELLVILLE     N/A     77 N/A N/A MISG        N/A
SHOALS AIRPORT SUNNY     81  58  45 S12       29.89F
SHOALS TVA RES   N/A     81 N/A N/A MISG        N/A
$$

ALZ005>007-016-300000-
NORTH CENTRAL ALABAMA

CITY           SKY/WX    TMP DP  RH WIND       PRES   REMARKS
CULLMAN AG STN   N/A     79 N/A N/A SW5         N/A
DECATUR AP     SUNNY     76  62  62 S10       29.91F
HUNTSVILLE AP  MOSUNNY   81  61  50 SE13      29.91F
MERIDIANVILLE  MOSUNNY   79  55  44 SE5       29.92F
REDSTONE ARSN  SUNNY     81  59  47 SW9       29.90F
VINEMONT AP    FAIR      80  57  46 S9        29.96S
$$

ALZ008>010-300000-
NORTHEAST ALABAMA

CITY           SKY/WX    TMP DP  RH WIND       PRES   REMARKS
ALBERTVILLE    SUNNY     77  66  69 S3        29.94S
FORT PAYNE     SUNNY     79  54  41 CALM      29.94F
SCOTTSBORO AP  SUNNY     81  59  47 CALM      29.94S
$$

TNZ076-096-097-300000-
SOUTHEASTERN MIDDLE TENNESSEE

CITY           SKY/WX    TMP DP  RH WIND       PRES   REMARKS
TULLAHOMA      SUNNY     79  55  44 S5        29.94F
WINCHESTER     MOSUNNY   79  61  53 SE9       29.94F
$$

...SURROUNDING SITES...

CITY           SKY/WX    TMP DP  RH WIND       PRES   REMARKS
ATLANTA        MOSUNNY   82  54  37 CALM      29.97F
ANNISTON       MOSUNNY   82  60  47 W9        29.94F
BIRMINGHAM     MOSUNNY   82  57  42 S12       29.95F
CHATTANOOGA    MOSUNNY   81  55  40 SE3       29.95F
CORINTH        FAIR      81  55  41 SE17      29.83F
DALTON         SUNNY     79  57  47 E3        29.97S
GADSDEN        SUNNY     83  58  42 S7        29.93F
GOLDEN TRNGL   MOSUNNY   81  55  41 S14       29.83S
HALEYVILLE     FAIR      78  59  51 S8        29.93F
JACKSON TN     CLOUDY    80  57  45 S10G20    29.83R
MEMPHIS        CLOUDY    79  56  45 S17       29.81S
NASHVILLE      MOSUNNY   79  58  48 SE9       29.90F
OXFORD MS      FAIR      77  54  44 S8G18     29.85S
ROME           MOSUNNY   83  56  39 N3        29.94F
SAVANNAH       SUNNY     81  55  41 S13G20    29.83F
TUPELO         PTSUNNY   79  57  46 SE10      29.85F
TUSCALOOSA     SUNNY     81  56  42 VRB6      29.89F
$$

...GULF COAST WEATHER...

CITY           SKY/WX    TMP DP  RH WIND       PRES   REMARKS
GULFPORT       PTSUNNY   76  69  79 SE14      29.94R
PASCAGOULA     MOSUNNY   74  65  73 SE12      29.95S
MOBILE         MOSUNNY   75  64  68 SE14      29.96R
GULF SHORES    PTCLDY    73  68  82 SE16      29.97S
PENSACOLA      PTSUNNY   74  65  73 SE13      29.97F
DESTIN         SUNNY     75  72  90 SE9       29.99F
PANAMA CITY    SUNNY     75  60  58 S5        30.02S
APPALACHICOLA  SUNNY     75  63  66 S6        30.02S
$$





USA.gov is the U.S. government's official web portal to all federal, state and local government web resources and services.